Regional Weather Roundup
Issued by NWS Wakefield, VA

Home | Current Version | Previous Version | Graphics & Text | Print | Product List | Glossary On
Versions: 1 2 3 4 5 6 7 8 9 10 11 12 13 14 15 16 17 18 19 20 21 22 23 24 25 26 27
000
ASUS41 KAKQ 011015
RWRAKQ

REGIONAL WEATHER ROUNDUP
NATIONAL WEATHER SERVICE WAKEFIELD VA
600 AM EDT SUN MAY 01 2016

Note: "fair" indicates few or no clouds below 12,000 feet with no
significant weather and/or obstructions to visibility. * = Denotes
station may not report precipitation (e.g., rain,snow,etc.),
thunder or fog.

VAZ042-051-052>054-056-011100-
NORTHERN VIRGINIA

CITY           SKY/WX    TMP DP  RH WIND       PRES   REMARKS
WASH NATIONAL  LGT RAIN  52  50  93 SE7       30.13F
DULLES         LGT RAIN  51  49  92 S9        30.10F
FORT BELVOIR   LGT RAIN  52  50  93 SE5       30.12F
QUANTICO       LGT RAIN  54  52  93 S13       30.13F
FREDERICKSBRG* RAIN      52  52 100 SE5       30.12F
STAFFORD*      LGT RAIN  51  50  96 SE3       30.16F
WARRENTON      DRIZZLE   53  48  83 SE5       30.10F
CULPEPER*      LGT RAIN  53  53  99 S3        30.11F
MANASSAS*      CLOUDY    52  52 100 S7        30.11F
LEESBURG*      LGT RAIN  52  52 100 S8        30.11S
WINCHESTER     DRIZZLE   52  52 100 S9        30.05F
FRONT ROYAL*   CLOUDY    52  52 100 CALM      30.05F
LURAY*         LGT RAIN  52  52 100 SW5       30.06S
$$

VAZ048-049-060>072-079>083-011100-
CENTRAL AND SOUTH CENTRAL VIRGINIA

CITY           SKY/WX    TMP DP  RH WIND       PRES   REMARKS
RICHMOND       RAIN      52  51  97 SE3       30.13S
CHESTERFIELD*  CLOUDY    54  39  58 SE5       30.15S
PETERSBURG*    CLOUDY    54  54 100 CALM      30.14R
HANOVER        RAIN      52  50  93 VRB3      30.14F FOG
TAPPAHANNOCK*  LGT RAIN  53  53 100 SE5       30.15F
QUINTON*       CLOUDY    52  52 100 E5        30.13F
CHARLOTTSVILLE LGT RAIN  53  51  93 S6        30.10F
GORDONSVILLE*  CLOUDY    52  52  99 SE5       30.09F
ORANGE*        RAIN      52  52 100 CALM      30.11F
LOUISA*        LGT RAIN  55  54  94 SE5       30.10F
BUMPASS*       CLOUDY    51  51  99 CALM      30.12S
FARMVILLE*     LGT RAIN  54  54 100 CALM      30.09F
CREWE*         CLOUDY    52  52 100 CALM      30.11F
FORT PICKETT*  NOT AVBL
CHASE CITY*    CLOUDY    55  53  94 SE5       30.10F
CLARKSVILLE*   CLOUDY    55  55 100 SE3       30.09F
SOUTH HILL*    CLOUDY    54  53  95 CALM      30.17F
LAWRENCEVILLE* CLOUDY    54  52  94 CALM      30.13S
EMPORIA*       CLOUDY    54  50  87 CALM      30.15S
$$

VAZ088>098-011100-
SOUTHEAST VIRGINIA

CITY           SKY/WX    TMP DP  RH WIND       PRES   REMARKS
NORFOLK        CLOUDY    56  49  77 VRB5      30.13F
VIRGINIA BEACH CLOUDY    58  50  75 E7        30.13S
NORFOLK NAVAL  CLOUDY    56  51  84 SE5       30.15S
WEST POINT*    CLOUDY    53  52  97 E6        30.15F
SALUDA*        CLOUDY    53  53  99 CALM      30.16R
NEWPORT NEWS   CLOUDY    56  52  86 NW5       30.16R
LANGLEY AFB    CLOUDY    57  51  80 SE2       30.14S
FORT EUSTIS    CLOUDY    56  53  89 E3        30.13R
WILLIAMSBURG*  FAIR      55  54  94 CALM      30.15F
HR EXEC AP*      N/A     55  52  88 CALM      30.16S
FRANKLIN*      CLOUDY    54  51  90 CALM      30.15S
US460-WAKEFLD  CLOUDY    54  50  86 E3        30.14F
$$

VAZ020-022-025-037-045-011100-
WEST CENTRAL AND SOUTHWEST VIRGINIA

CITY           SKY/WX    TMP DP  RH WIND       PRES   REMARKS
STAUNTON*      LGT RAIN  55  55 100 SW6       30.09R
WAYNESBORO*    CLOUDY    51  50  97 MISG      30.07S
HOT SPRINGS VA LGT RAIN  49  49 100 S8        30.07R VSB 1/4
LYNCHBURG      CLOUDY    53  52  96 SE3       30.09F
DANVILLE       LGT RAIN  57  56  96 E3        30.08F FOG
SOUTH BOSTON*  CLOUDY    55  54  95 E5        30.08F
MARTINSVILLE   RAIN      53  53  99 N5        30.09F
ROANOKE        LGT RAIN  54  53  97 E8        30.09S
BLACKSBURG     CLOUDY    54  53  98 CALM      30.09S
DUBLIN*        CLOUDY    54  54 100 CALM      30.08S
MARION*        CLOUDY    56  54  93 NE12      30.07F
HILLSVILLE*    FOG       54  54 100 S8        30.06S VSB 1
RICHLANDS*     CLOUDY    58  56  93 SE7       30.00F
WISE*          CLOUDY    59  59 100 S8        30.01S
ABINGDON*      MOCLDY    59  58  96 CALM      30.00S
$$

MDZ021>025-VAZ099-100-011100-
SOUTHERN MARYLAND AND THE DELMARVA PENINSULA

CITY           SKY/WX    TMP DP  RH WIND       PRES   REMARKS
PATUXENT RIVER CLOUDY    53  49  86 S5        30.15F
BAY BRIDGE APT NOT AVBL
LEONARDTOWN    CLOUDY    52  48  87 CALM      30.16R
DOVER          DRIZZLE   50  50 100 SE2       30.16S
GEORGETOWN     CLOUDY    50  48  93 CALM      30.18R
EASTON         RAIN     N/A N/A N/A SE3       30.18F
CAMBRIDGE      CLOUDY    48  46  93 CALM      30.15S
SALISBURY      CLOUDY    50  48  93 CALM      30.17R
OCEAN CITY     CLOUDY    51  48  89 E5        30.16R
WALLOPS ISLAND CLOUDY    53  48  83 E3        30.17R
ACCOMACK*      DRIZZLE  N/A N/A N/A CALM      30.16R
$$

NCZ012>017-030>032-011100-
NORTH CENTRAL AND EASTERN NORTH CAROLINA

CITY           SKY/WX    TMP DP  RH WIND       PRES   REMARKS
ROANOKE RAPIDS FAIR      54  54 100 CALM      30.12F
RALEIGH        CLOUDY    59  56  89 SE5       30.10F
ELIZABETH CITY CLOUDY    57  54  89 E6        30.13S
AHOSKIE*       CLOUDY    55  52  92 CALM      30.14S
EDENTON*       CLOUDY    57  57 100 CALM      30.14S
CURRITUCK*     CLOUDY    57  53  86 CALM      30.15R
KILL DEVIL HLS CLOUDY    56  55  94 E3        30.12S
MANTEO         NOT AVBL
CAPE HATTERAS  CLOUDY    60  58  92 NE7       30.12R
TARBORO*       CLOUDY    57  54  89 CALM      30.14S
GOLDSBORO      CLOUDY    61  61 100 SE7       30.09F
WASHINGTON     CLOUDY    55  52  92 CALM      30.13S
GREENVILLE     CLOUDY    55  54  94 E3        30.14S
NEW BERN       CLOUDY    60  57  89 NE5       30.13S
WILMINGTON     CLOUDY    65  63  93 E5        30.10S
$$

VAZ048-011100-
ELSEWHERE

CITY           SKY/WX    TMP DP  RH WIND       PRES   REMARKS
HARRISBURG PA  RAIN      47  44  90 SE12      30.12S FOG
BALTIMORE      LGT RAIN  49  47  93 E5        30.13F FOG
ANNAPOLIS      LGT RAIN  52  48  86 MISG      30.14S
ANDREWS AFB    LGT RAIN  50  49  95 SE7       30.12S
PHILADELPHIA   LGT RAIN  49  42  77 E5        30.19S
HENDERSON NC   CLOUDY    56  56 100 SE6       30.09F
GREENSBORO     CLOUDY    60  59  96 SE12      30.05F FOG
ROCKY MOUNT    CLOUDY    56  55  97 CALM      30.11F
$$

VAZ100-011100-
MARINE

STATION/POSITION TIME  TEMP    WIND        PRES    WAVE   SWELL
                       AIR SEA DIR/SP/G            HT/PER HT/PER
                 (UTC) (F)     (DEG/KT/KT) (MB)    (FT/S) (FT/S)
BRANDYWINE LGT   0900   50     140/  8/  9 1021.6R
CAPE MAY NJ      0900   50 57   80/  3/  4 1021.2S
LEWES DE         0900   51 56  120/  5/  6 1021.1F
15NM E FENWICK I 0950   51 51              1021.3F   4/ 7
OCEAN-CITY-INLET 0900   51 54  130/  6/  8 1020.5F
WACHAPREAGUE VA  0900   54 58   90/  6/  8 1020.4F
THOMAS POINT MD  1000   52 57  150/  9/  9 1022.2R
GOOSES REEF MD   1000   53 57  140/ 10/ 12 1021.5F   1/ 2
COVE POINT MD    0900   54     190/ 10/ 11 1021.5R
SOLOMONS ISLAND  0900   54 59  170/  6/  7   N/A
BISHOPS HEAD MD  0900   53 57  130/  6/  9 1020.4R
PINEY POINT MD   0900          180/  7/  8   N/A
POTOMAC MD       1000   54 58  200/  8/ 10 1020.5R   1/ 2
CAMBRIDGE MD     0900   50 60  120/  3/  4 1020.4R
LEWISETTA VA     0900   55 59  220/  3/  4 1021.1R
RAPPAHANNOCK LGT 0900          100/  8/  9 1021.2S
STINGRAY PT      1000   56 60  170/  2/  4 1022.0R   1/ 2
YORK RVR RNG VA  0900   57     140/ 11/ 12 1019.9S
YORKTOWN VA      0900   57 61  130/  8/  9 1020.3R
JAMESTOWN VA     1000   55 65   90/  4/  6   N/A     0
DOMINION TERM VA 0900   56      90/  6/  8 1020.5S
KIPTOPEKE VA     0900      59  100/  7/  9   N/A
CHES BAY BRIDGE  0900   56 60  100/  8/ 11 1020.2R
CAPE HENRY VA    0900   55     110/ 10/ 12   N/A
CHESAPEAKE LGHT  0900   54      80/ 12/ 13 1021.0F
WILLOUBY STN VA  0900   56     130/  5/  6 1021.4R
CAPE HENRY BUOY  0912      55                N/A     4/11   2/11
CAPE CHARLES BUO 0926      56                N/A     4/11   3/11
OFFSHORE WE BUOY 0921      54                N/A     5/ 9   5/ 9
64NM E OF VA BCH 0950   54 53   60/  6/  8 1020.2F   6/10   7/10
DUCK PIER NC     0900   56 67  100/  6/  7 1019.8R
44100 DUCK FRF   0924      54                N/A     5/10   2/11
44056 DUCK FRF   0911      59                N/A     4/11   2/11
OREGON INLET NC  0900   58 62   50/  6/  8 1019.7R
HATTERAS NC      0900   62 67   60/  6/  8 1019.2S
DIAMOND SHLS NC  0950   72 73  170/ 12/ 16 1019.5R   5/11   5/11
CAPE LOOKOUT NC  1000   65      50/  7/  8C1F1C2F2C3F3C4F4C5F5C6F6C7F7C8M1C9!



USA.gov is the U.S. government's official web portal to all federal, state and local government web resources and services.